| time (UTC) | temp F | wind direction | speed MPH | gust MPH | rain 1hr in | rain 24hr in | rain mn in | humidity % | barometer mb |
| 20260504140105 | 66 | 185 | 8.0 | 12.0 | 0.00 | 0.00 | 0.00 | 63 | 1000.8 |
| 20260504081505 | 54 | 207 | 4.0 | 8.0 | 0.00 | 0.00 | 0.00 | 68 | 1003.3 |
| 20260504044535 | 59 | 232 | 2.0 | 4.0 | 0.00 | 0.00 | 0.00 | 62 | 1005.0 |
| 20260504043037 | 58 | 218 | 3.0 | 6.0 | 0.00 | 0.00 | 0.00 | 64 | 1005.1 |
| 20260504041530 | 58 | 204 | 4.0 | 7.0 | 0.00 | 0.00 | 0.00 | 65 | 1005.2 |
| 20260504040029 | 59 | 200 | 4.0 | 7.0 | 0.00 | 0.00 | 0.00 | 64 | 1005.4 |
| 20260504034529 | 59 | 207 | 5.0 | 9.0 | 0.00 | 0.00 | 0.00 | 64 | 1005.5 |
| 20260504033028 | 60 | 222 | 5.0 | 9.0 | 0.00 | 0.00 | 0.00 | 63 | 1005.7 |
| 20260504031527 | 60 | 209 | 6.0 | 10.0 | 0.00 | 0.00 | 0.00 | 63 | 1005.7 |
| 20260504030027 | 60 | 192 | 6.0 | 10.0 | 0.00 | 0.00 | 0.00 | 63 | 1005.8 |
| 20260504024532 | 60 | 215 | 5.0 | 9.0 | 0.00 | 0.00 | 0.00 | 62 | 1005.8 |
| 20260504023025 | 60 | 208 | 5.0 | 9.0 | 0.00 | 0.00 | 0.00 | 60 | 1005.7 |
| 20260504021526 | 60 | 203 | 4.0 | 6.0 | 0.00 | 0.00 | 0.00 | 59 | 1005.6 |
| 20260504020023 | 62 | 205 | 4.0 | 7.0 | 0.00 | 0.00 | 0.00 | 56 | 1005.6 |
| 20260504014523 | 62 | 207 | 4.0 | 9.0 | 0.00 | 0.00 | 0.00 | 55 | 1005.6 |
| 20260504013033 | 62 | 219 | 4.0 | 7.0 | 0.00 | 0.00 | 0.00 | 54 | 1005.5 |
| 20260504011521 | 63 | 225 | 4.0 | 6.0 | 0.00 | 0.00 | 0.00 | 53 | 1005.4 |
| 20260504010020 | 64 | 235 | 4.0 | 5.0 | 0.00 | 0.00 | 0.00 | 53 | 1005.5 |
| 20260504004522 | 65 | 236 | 3.0 | 7.0 | 0.00 | 0.00 | 0.00 | 50 | 1005.4 |
| 20260504003035 | 66 | 236 | 4.0 | 10.0 | 0.00 | 0.00 | 0.00 | 48 | 1005.4 |
| 20260504001519 | 68 | 239 | 8.0 | 12.0 | 0.00 | 0.00 | 0.00 | 45 | 1005.5 |
| 20260504000019 | 68 | 233 | 5.0 | 11.0 | 0.00 | 0.00 | 0.00 | 43 | 1005.4 |
| 20260503234517 | 69 | 248 | 5.0 | 12.0 | 0.00 | 0.00 | 0.00 | 42 | 1005.5 |
| 20260503233017 | 69 | 243 | 8.0 | 14.0 | 0.00 | 0.00 | 0.00 | 42 | 1005.5 |
| 20260503231517 | 69 | 253 | 10.0 | 14.0 | 0.00 | 0.00 | 0.00 | 42 | 1005.5 |
| 20260503230016 | 69 | 254 | 7.0 | 12.0 | 0.00 | 0.00 | 0.00 | 43 | 1005.4 |
| 20260503224526 | 70 | 233 | 11.0 | 16.0 | 0.00 | 0.00 | 0.00 | 42 | 1005.5 |
| 20260503223013 | 70 | 257 | 8.0 | 14.0 | 0.00 | 0.00 | 0.00 | 41 | 1005.6 |
| 20260503221511 | 70 | 246 | 8.0 | 16.0 | 0.00 | 0.00 | 0.00 | 42 | 1005.6 |
| 20260503220017 | 70 | 258 | 7.0 | 16.0 | 0.00 | 0.00 | 0.00 | 43 | 1005.6 |
| 20260503214510 | 69 | 240 | 13.0 | 19.0 | 0.00 | 0.00 | 0.00 | 46 | 1005.8 |
| 20260503213008 | 70 | 248 | 8.0 | 15.0 | 0.00 | 0.00 | 0.00 | 45 | 1005.8 |
| 20260503211505 | 68 | 252 | 9.0 | 17.0 | 0.00 | 0.00 | 0.00 | 47 | 1005.7 |
| 20260503210101 | 67 | 274 | 10.0 | 16.0 | 0.00 | 0.00 | 0.00 | 47 | 1006.3 |
| 20260503204600 | 67 | 238 | 11.0 | 20.0 | 0.00 | 0.00 | 0.00 | 48 | 1006.3 |
| 20260503203109 | 67 | 241 | 12.0 | 20.0 | 0.00 | 0.00 | 0.00 | 48 | 1006.4 |
| 20260503201559 | 66 | 224 | 13.0 | 22.0 | 0.00 | 0.00 | 0.00 | 48 | 1006.4 |
| 20260503200055 | 65 | 231 | 17.0 | 26.0 | 0.00 | 0.00 | 0.00 | 48 | 1006.8 |
| 20260503194555 | 64 | 219 | 13.0 | 20.0 | 0.00 | 0.00 | 0.00 | 49 | 1006.3 |
| 20260503193052 | 64 | 244 | 16.0 | 24.0 | 0.00 | 0.00 | 0.00 | 49 | 1007.2 |
| 20260503191550 | 65 | 241 | 12.0 | 18.0 | 0.00 | 0.00 | 0.00 | 48 | 1007.4 |
| 20260503190048 | 64 | 205 | 12.0 | 23.0 | 0.00 | 0.00 | 0.00 | 48 | 1006.5 |
| 20260503184604 | 65 | 236 | 22.0 | 29.0 | 0.00 | 0.00 | 0.00 | 47 | 1008.2 |
| 20260503183050 | 64 | 227 | 15.0 | 20.0 | 0.00 | 0.00 | 0.00 | 48 | 1007.6 |
| 20260503181550 | 63 | 216 | 11.0 | 17.0 | 0.00 | 0.00 | 0.00 | 48 | 1007.9 |
| 20260503180043 | 63 | 207 | 12.0 | 25.0 | 0.00 | 0.00 | 0.00 | 48 | 1008.1 |
| 20260503174540 | 63 | 223 | 15.0 | 24.0 | 0.00 | 0.00 | 0.00 | 47 | 1008.3 |
| 20260503173040 | 62 | 213 | 14.0 | 29.0 | 0.00 | 0.00 | 0.00 | 47 | 1008.3 |
| 20260503171602 | 63 | 214 | 10.0 | 21.0 | 0.00 | 0.00 | 0.00 | 48 | 1008.6 |